When you browse on this site, cookies collect data to enhance your experience and personalize the content and advertising you see.
Visit our Privacy Policy to learn more. By continuing to use the site, you agree to this use of cookies and data.
  • In Lithuania
  • List of Countries
  • For 7 days
  • Water Temperature
  • Weather Map
  • Weather Widgets
  • user-avatar
    Login

    Hourly Weather La Massana

    Today, 17 February, Monday

    Time Temperature Precipitation Wind Pressure Humidity
    00:00 +3°C° 0 mm 2 mps 613 mmHg 48%
    01:00 +3°C° 0 mm 2 mps 612 mmHg 49%
    02:00 +3°C° 0 mm 2 mps 612 mmHg 49%
    03:00 +3°C° 0 mm 2 mps 612 mmHg 49%
    04:00 +4°C° 0 mm 1 mps 612 mmHg 50%
    05:00 +4°C° 0 mm 1 mps 612 mmHg 50%
    06:00 +4°C° 0 mm 1 mps 612 mmHg 50%
    07:00 +5°C° 0 mm 1 mps 612 mmHg 50%
    08:00 +7°C° 0 mm 1 mps 613 mmHg 50%
    09:00 +8°C° 0 mm 1 mps 614 mmHg 50%
    10:00 +9°C° 0 mm 1 mps 615 mmHg 49%
    11:00 +9°C° 0 mm 2 mps 615 mmHg 49%
    12:00 +10°C° 0 mm 2 mps 616 mmHg 48%
    13:00 +9°C° 0 mm 2 mps 615 mmHg 57%
    14:00 +8°C° 0 mm 2 mps 615 mmHg 65%
    15:00 +7°C° 0 mm 2 mps 615 mmHg 73%
    16:00 +5°C° 0.1 mm 2 mps 614 mmHg 79%
    17:00 +4°C° 0.1 mm 2 mps 614 mmHg 85%
    18:00 +3°C° 0.1 mm 2 mps 614 mmHg 90%
    19:00 +2°C° 0.1 mm 2 mps 615 mmHg 90%
    20:00 +1°C° 0.1 mm 2 mps 615 mmHg 90%
    21:00 +1°C° 0.1 mm 2 mps 615 mmHg 90%
    22:00 -1°C° 0 mm 2 mps 615 mmHg 88%
    23:00 -1°C° 0 mm 2 mps 615 mmHg 87%

    Tomorrow, 18 February, Tuesday

    Time Temperature Precipitation Wind Pressure Humidity
    00:00 -2°C° 0 mm 2 mps 615 mmHg 86%
    01:00 -2°C° 0 mm 2 mps 615 mmHg 86%
    02:00 -2°C° 0 mm 2 mps 615 mmHg 86%
    03:00 -3°C° 0 mm 2 mps 615 mmHg 85%
    04:00 -3°C° 0 mm 2 mps 615 mmHg 86%
    05:00 -3°C° 0 mm 2 mps 615 mmHg 87%
    06:00 -4°C° 0 mm 2 mps 614 mmHg 88%
    07:00 -3°C° 0 mm 2 mps 615 mmHg 84%
    08:00 -2°C° 0 mm 2 mps 616 mmHg 80%
    09:00 -2°C° 0 mm 2 mps 616 mmHg 75%
    10:00 +1°C° 0 mm 2 mps 616 mmHg 71%
    11:00 +3°C° 0 mm 1 mps 617 mmHg 66%
    12:00 +4°C° 0 mm 1 mps 617 mmHg 61%
    13:00 +4°C° 0 mm 1 mps 617 mmHg 62%
    14:00 +3°C° 0 mm 2 mps 616 mmHg 64%
    15:00 +3°C° 0 mm 2 mps 616 mmHg 65%
    16:00 +2°C° 0 mm 1 mps 615 mmHg 73%
    17:00 +1°C° 0 mm 1 mps 615 mmHg 81%
    18:00 -1°C° 0 mm 1 mps 614 mmHg 89%
    19:00 -1°C° 0 mm 1 mps 615 mmHg 88%
    20:00 -3°C° 0 mm 2 mps 615 mmHg 88%
    21:00 -3°C° 0 mm 2 mps 615 mmHg 88%
    22:00 -4°C° 0 mm 2 mps 615 mmHg 87%
    23:00 -4°C° 0 mm 2 mps 615 mmHg 87%

    Day after tomorrow, 19 February, Wednesday

    Time Temperature Precipitation Wind Pressure Humidity
    00:00 -4°C° 0 mm 2 mps 615 mmHg 86%
    01:00 -5°C° 0 mm 2 mps 614 mmHg 84%
    02:00 -5°C° 0 mm 2 mps 614 mmHg 82%
    03:00 -5°C° 0 mm 2 mps 613 mmHg 80%
    04:00 -5°C° 0 mm 2 mps 613 mmHg 77%
    05:00 -5°C° 0 mm 2 mps 614 mmHg 73%
    06:00 -5°C° 0 mm 2 mps 614 mmHg 70%
    07:00 -4°C° 0 mm 2 mps 614 mmHg 64%
    08:00 -3°C° 0 mm 2 mps 615 mmHg 59%
    09:00 -2°C° 0 mm 2 mps 616 mmHg 53%
    10:00 +1°C° 0 mm 2 mps 617 mmHg 48%
    11:00 +4°C° 0 mm 1 mps 617 mmHg 44%
    12:00 +6°C° 0 mm 1 mps 618 mmHg 39%
    13:00 +6°C° 0 mm 1 mps 617 mmHg 42%
    14:00 +5°C° 0 mm 1 mps 617 mmHg 46%
    15:00 +5°C° 0 mm 1 mps 616 mmHg 49%
    16:00 +3°C° 0 mm 1 mps 615 mmHg 60%
    17:00 +1°C° 0 mm 1 mps 614 mmHg 72%
    18:00 -2°C° 0 mm 0 mps 613 mmHg 83%
    19:00 -2°C° 0 mm 0 mps 613 mmHg 79%
    20:00 -1°C° 0 mm 1 mps 613 mmHg 75%
    21:00 -1°C° 0 mm 1 mps 613 mmHg 70%
    22:00 0°C° 0 mm 1 mps 613 mmHg 65%
    23:00 0°C° 0 mm 1 mps 613 mmHg 60%

    20 February, Thursday

    Time Temperature Precipitation Wind Pressure Humidity
    00:00 0°C° 0 mm 1 mps 613 mmHg 55%
    01:00 0°C° 0 mm 1 mps 612 mmHg 52%
    02:00 0°C° 0 mm 1 mps 612 mmHg 49%
    03:00 0°C° 0 mm 1 mps 611 mmHg 46%
    04:00 0°C° 0 mm 1 mps 611 mmHg 44%
    05:00 0°C° 0 mm 1 mps 611 mmHg 43%
    06:00 0°C° 0 mm 1 mps 610 mmHg 41%
    07:00 +2°C° 0 mm 1 mps 611 mmHg 38%
    08:00 +3°C° 0 mm 0 mps 612 mmHg 36%
    09:00 +5°C° 0 mm 0 mps 613 mmHg 34%
    10:00 +8°C° 0 mm 1 mps 613 mmHg 33%
    11:00 +9°C° 0 mm 1 mps 613 mmHg 32%
    12:00 +10°C° 0 mm 1 mps 613 mmHg 31%
    13:00 +10°C° 0 mm 1 mps 613 mmHg 35%
    14:00 +9°C° 0 mm 1 mps 613 mmHg 38%
    15:00 +9°C° 0 mm 1 mps 612 mmHg 41%
    16:00 +6°C° 0 mm 1 mps 611 mmHg 51%
    17:00 +4°C° 0 mm 1 mps 610 mmHg 61%
    18:00 +1°C° 0 mm 0 mps 609 mmHg 72%
    19:00 +1°C° 0 mm 1 mps 610 mmHg 72%
    20:00 +1°C° 0 mm 1 mps 610 mmHg 73%
    21:00 -1°C° 0 mm 2 mps 611 mmHg 74%
    22:00 -2°C° 0 mm 2 mps 611 mmHg 77%
    23:00 -2°C° 0 mm 2 mps 611 mmHg 80%

    21 February, Friday

    Time Temperature Precipitation Wind Pressure Humidity
    00:00 -3°C° 0 mm 2 mps 612 mmHg 83%
    01:00 -3°C° 0 mm 2 mps 612 mmHg 85%
    02:00 -3°C° 0 mm 2 mps 612 mmHg 86%
    03:00 -3°C° 0 mm 2 mps 612 mmHg 87%
    04:00 -3°C° 0.2 mm 2 mps 612 mmHg 88%
    05:00 -4°C° 0.2 mm 3 mps 613 mmHg 88%
    06:00 -5°C° 0.2 mm 3 mps 613 mmHg 89%
    13:00 +7°C° 0 mm 1 mps 617 mmHg 49%
    14:00 +4°C° 0 mm 2 mps 617 mmHg 39%
    15:00 +4°C° 0 mm 2 mps 617 mmHg 40%
    16:00 +2°C° 0 mm 2 mps 616 mmHg 52%
    17:00 -1°C° 0 mm 2 mps 615 mmHg 64%
    18:00 -2°C° 0 mm 1 mps 615 mmHg 76%
    19:00 -2°C° 0 mm 1 mps 615 mmHg 65%
    20:00 -1°C° 0 mm 1 mps 616 mmHg 54%
    21:00 -1°C° 0 mm 1 mps 616 mmHg 43%
    22:00 -1°C° 0 mm 1 mps 616 mmHg 38%
    23:00 -1°C° 0 mm 1 mps 616 mmHg 32%

    22 February, Saturday

    Time Temperature Precipitation Wind Pressure Humidity
    00:00 -1°C° 0 mm 1 mps 617 mmHg 26%
    01:00 -1°C° 0 mm 1 mps 617 mmHg 25%
    02:00 -1°C° 0 mm 1 mps 617 mmHg 24%
    03:00 -1°C° 0 mm 1 mps 617 mmHg 23%
    04:00 0°C° 0 mm 1 mps 617 mmHg 23%
    05:00 0°C° 0 mm 1 mps 617 mmHg 23%
    06:00 0°C° 0 mm 1 mps 617 mmHg 23%
    07:00 +2°C° 0 mm 1 mps 618 mmHg 23%
    08:00 +4°C° 0 mm 1 mps 619 mmHg 24%
    09:00 +6°C° 0 mm 1 mps 620 mmHg 25%
    10:00 +7°C° 0 mm 1 mps 621 mmHg 25%
    11:00 +8°C° 0 mm 1 mps 622 mmHg 26%
    12:00 +10°C° 0 mm 1 mps 622 mmHg 26%
    13:00 +10°C° 0 mm 1 mps 622 mmHg 29%
    14:00 +10°C° 0 mm 1 mps 621 mmHg 31%
    15:00 +9°C° 0 mm 1 mps 621 mmHg 34%
    16:00 +7°C° 0 mm 1 mps 620 mmHg 42%
    17:00 +4°C° 0 mm 1 mps 619 mmHg 50%
    18:00 +2°C° 0 mm 1 mps 618 mmHg 59%
    19:00 +2°C° 0 mm 1 mps 618 mmHg 54%
    20:00 +1°C° 0 mm 2 mps 618 mmHg 49%
    21:00 +1°C° 0 mm 2 mps 619 mmHg 45%
    22:00 +1°C° 0 mm 2 mps 619 mmHg 44%
    23:00 +1°C° 0 mm 2 mps 619 mmHg 43%
    Show more